Tracking 17857 objects as of 30-September-2016
HD Live streaming from Space Station
objects crossing your sky now

AVUM R/B

Track AVUM R/B now!
10-day predictions


NORAD ID: 38086
Int'l Code: 2012-006K
Perigee: 220.4 km
Apogee: 369.7 km
Inclination: 69.5 °
Period: 90.3 minutes
Semi major axis: 6666 km
RCS: 4.0982 m2 (large)
Launch date: February 13, 2012
Source: European Space Agency (ESA)
Launch site: FRENCH GUIANA (FRGUI)

Note: This is a ROCKET BODY
Your satellite tracking list
Your tracking list is empty





NASA's NSSDC Master Catalog

Two Line Element Set (TLE):
1 38086U 12006K   16274.50047078  .00266338  42694-5  35473-3 0  9998
2 38086  69.4551 286.8400 0112001 204.8158 154.7639 15.95147616249979
Source of the keplerian elements: AFSPC

N2YO: 1081